GW6501 Weather Reports


time (UTC)temp
C
wind
direction
speed
KPH
gust
KPH
rain 1hr
cm
rain 24hr
cm
rain mn
cm
humidity
%
barometer
mb
20260506084711 24 178 0.0 1.6 0.00 0.00 0.00 90 1009.9
20260506083604 24 177 0.0 3.2 0.00 0.00 0.00 90 1009.9
20260506082703 24 179 0.0 4.8 0.00 0.00 0.00 89 1010.0
20260506081803 24 190 0.0 4.8 0.00 0.00 0.00 89 1009.7
20260506080903 24 177 0.0 4.8 0.00 0.00 0.00 89 1009.8
20260506072911 24 192 1.6 4.8 0.00 0.00 0.00 89 1009.9
20260506072011 24 203 1.6 4.8 0.00 0.00 0.00 89 1010.0
20260506070903 24 196 1.6 6.4 0.00 0.00 0.00 89 1010.1
20260506062011 24 200 1.6 4.8 0.00 0.00 0.00 88 1010.5
20260506060903 24 199 1.6 4.8 0.00 0.00 0.00 88 1010.7
20260506060211 24 207 1.6 4.8 0.00 0.00 0.00 88 1010.5
20260506050903 24 209 1.6 8.0 0.00 0.00 0.00 89 1010.1
20260506044504 24 184 0.0 3.2 0.00 0.00 0.00 89 1010.4
20260506043603 24 196 1.6 4.8 0.00 0.00 0.00 89 1010.3
20260506042703 23 202 1.6 4.8 0.00 0.00 0.00 90 1010.3
20260506041803 23 199 0.0 4.8 0.00 0.00 0.00 90 1010.3
20260506040903 23 204 0.0 4.8 0.00 0.00 0.00 89 1010.0
20260506040211 23 199 0.0 4.8 0.00 0.00 0.00 89 1009.8
20260506035611 23 204 1.6 4.8 0.00 0.00 0.00 89 1009.8
20260506034503 24 196 1.6 8.0 0.00 0.00 0.00 89 1009.6
20260506033811 24 206 1.6 6.4 0.00 0.00 0.00 89 1009.8
20260506032703 24 202 1.6 6.4 0.00 0.00 0.00 89 1009.4
20260506031803 24 199 1.6 6.4 0.00 0.00 0.00 89 1009.3
20260506030903 24 204 3.2 9.7 0.00 0.00 0.00 89 1009.2
20260506030004 24 194 1.6 8.0 0.00 0.00 0.00 88 1009.4
20260506025403 24 172 1.6 8.0 0.00 0.00 0.00 88 1009.2
20260506024711 24 179 1.6 8.0 0.00 0.00 0.00 88 1009.0
20260506023604 24 203 1.6 6.4 0.00 0.00 0.00 87 1009.1
20260506022703 24 208 1.6 6.4 0.00 0.00 0.00 87 1009.0
20260506022011 24 195 1.6 8.0 0.00 0.00 0.00 87 1009.0
20260506020904 25 197 1.6 6.4 0.00 0.00 0.00 86 1008.9
20260506020004 25 211 1.6 8.0 0.00 0.00 0.00 86 1008.8
20260506015611 25 210 1.6 8.0 0.00 0.00 0.00 86 1008.6
20260506014504 25 198 1.6 8.0 0.00 0.00 0.00 86 1008.2
20260506013811 25 208 1.6 8.0 0.00 0.00 0.00 86 1008.2
20260506012911 25 188 1.6 8.0 0.00 0.00 0.00 85 1007.9
20260506011804 25 197 3.2 9.7 0.00 0.00 0.00 85 1007.9
20260506010904 25 175 3.2 8.0 0.00 0.00 0.00 85 1007.7
20260506010004 25 209 3.2 9.7 0.00 0.00 0.00 85 1007.6
20260506005403 25 196 1.6 4.8 0.00 0.00 0.00 84 1007.6
20260506004504 26 188 1.6 8.0 0.00 0.00 0.00 83 1007.3
20260506003604 26 204 1.6 9.7 0.00 0.00 0.00 82 1007.3
20260506002703 26 188 3.2 9.7 0.00 0.00 0.00 82 1007.5
20260506001803 26 199 1.6 8.0 0.00 0.00 0.00 81 1007.5
20260506000903 26 193 1.6 8.0 0.00 0.00 0.00 81 1007.6
20260506000212 26 186 1.6 8.0 0.00 0.00 0.00 80 1007.6
20260505235403 27 207 3.2 9.7 0.00 0.00 0.00 79 1007.6
20260505234711 27 214 1.6 9.7 0.00 0.00 0.00 78 1007.6
20260505233603 27 209 1.6 6.4 0.00 0.00 0.00 76 1007.4
20260505232703 27 217 3.2 9.7 0.00 0.00 0.00 75 1007.5
20260505231803 28 214 1.6 8.0 0.00 0.00 0.00 72 1007.4
20260505230904 27 216 3.2 12.9 0.00 0.00 0.00 73 1007.8
20260505230211 27 211 4.8 8.0 0.00 0.00 0.00 72 1007.6
20260505225403 28 213 3.2 6.4 0.00 0.00 0.00 71 1007.6
20260505224711 27 214 3.2 11.3 0.00 0.00 0.00 72 1007.6
20260505223603 28 211 3.2 9.7 0.00 0.00 0.00 73 1007.7
20260505222704 27 207 3.2 9.7 0.00 0.00 0.00 72 1007.7
20260505221803 27 210 3.2 8.0 0.00 0.00 0.00 72 1007.8
20260505220904 27 223 4.8 9.7 0.00 0.00 0.00 72 1007.8
20260505220004 27 214 4.8 14.5 0.00 0.00 0.00 72 1007.6
20260505215404 27 219 4.8 14.5 0.00 0.00 0.00 72 1007.8
20260505214711 28 217 3.2 9.7 0.00 0.00 0.00 70 1007.8
20260505213603 27 221 4.8 12.9 0.00 0.00 0.00 71 1007.4
20260505212703 27 208 3.2 12.9 0.00 0.00 0.00 71 1007.6
20260505211803 27 209 3.2 11.3 0.00 0.00 0.00 72 1007.9
20260505210903 27 227 3.2 9.7 0.00 0.00 0.00 73 1008.0
20260505210003 27 203 3.2 9.7 0.00 0.00 0.00 72 1008.2
20260505205404 27 204 3.2 12.9 0.00 0.00 0.00 72 1008.3
20260505204711 27 209 3.2 12.9 0.00 0.00 0.00 72 1008.5
20260505203604 27 204 3.2 9.7 0.00 0.00 0.00 73 1008.6
20260505202703 27 211 3.2 9.7 0.00 0.00 0.00 72 1008.9
20260505201803 27 220 3.2 9.7 0.00 0.00 0.00 73 1009.0
20260505200903 27 216 3.2 9.7 0.00 0.00 0.00 71 1008.9
20260505200004 27 215 3.2 9.7 0.00 0.00 0.00 73 1009.1
20260505195403 27 216 3.2 9.7 0.00 0.00 0.00 71 1009.1
20260505194503 26 212 4.8 9.7 0.00 0.00 0.00 74 1009.3
20260505193603 27 222 4.8 12.9 0.00 0.00 0.00 73 1009.3
20260505192703 27 226 3.2 11.3 0.00 0.00 0.00 73 1009.3
20260505191803 26 220 3.2 9.7 0.00 0.00 0.00 76 1009.4
20260505190903 26 215 3.2 11.3 0.00 0.00 0.00 75 1009.4
20260505190211 26 215 3.2 11.3 0.00 0.00 0.00 75 1009.7
20260505185403 26 219 3.2 11.3 0.00 0.00 0.00 74 1009.7
20260505184503 26 204 1.6 11.3 0.00 0.00 0.00 75 1009.6
20260505183603 26 199 4.8 11.3 0.00 0.00 0.00 76 1009.6
20260505182704 26 221 3.2 9.7 0.00 0.00 0.00 76 1009.7
20260505181804 26 222 4.8 9.7 0.00 0.00 0.00 76 1009.7
20260505180904 25 219 4.8 12.9 0.00 0.00 0.00 77 1009.7
20260505180004 25 202 4.8 9.7 0.00 0.00 0.00 78 1009.8
20260505175404 25 201 3.2 9.7 0.00 0.00 0.00 78 1009.6
20260505174504 25 212 3.2 8.0 0.00 0.00 0.00 78 1009.8
20260505173603 25 209 3.2 9.7 0.00 0.00 0.00 79 1010.1
20260505172704 25 204 3.2 8.0 0.00 0.00 0.00 79 1010.3
20260505172011 25 207 3.2 8.0 0.00 0.00 0.00 79 1010.3
20260505170904 25 203 1.6 8.0 0.00 0.00 0.00 79 1010.4
20260505170004 25 216 3.2 9.7 0.00 0.00 0.00 79 1010.1
20260505165611 25 217 1.6 9.7 0.00 0.00 0.00 79 1010.5
20260505164503 24 220 3.2 9.7 0.00 0.00 0.00 81 1010.4
20260505163811 25 196 3.2 9.7 0.00 0.00 0.00 80 1010.5
20260505162704 25 212 3.2 14.5 0.00 0.00 0.00 79 1010.5
20260505161804 25 208 3.2 9.7 0.00 0.00 0.00 80 1009.9
20260505161111 25 209 3.2 8.0 0.00 0.00 0.00 79 1009.9
20260505152703 23 205 3.2 9.7 0.00 0.00 0.00 83 1009.9
20260505140211 22 197 1.6 9.7 0.00 0.00 0.00 87 1009.8
20260505130211 21 188 1.6 8.0 0.00 0.00 0.00 90 1010.0
20260505124503 21 181 1.6 9.7 0.00 0.00 0.00 91 1009.9
20260505123811 21 177 3.2 9.7 0.00 0.00 0.00 91 1009.6
20260505122703 21 185 3.2 9.7 0.00 0.00 0.00 91 1009.5
20260505121804 21 185 3.2 11.3 0.00 0.00 0.00 91 1009.6
20260505120904 20 183 1.6 11.3 0.00 0.00 0.00 92 1009.3
20260505120004 20 182 1.6 4.8 0.00 0.00 0.00 92 1009.4
20260505115403 20 178 1.6 6.4 0.00 0.00 0.00 92 1009.6
20260505114503 20 184 1.6 6.4 0.00 0.00 0.00 92 1009.6
20260505113603 20 196 1.6 9.7 0.00 0.00 0.00 92 1009.6
20260505112704 20 192 1.6 8.0 0.00 0.00 0.00 92 1009.3
20260505111803 20 185 1.6 8.0 0.00 0.00 0.00 92 1009.3
20260505110904 20 175 1.6 4.8 0.00 0.00 0.00 93 1009.3
20260505110211 20 160 0.0 3.2 0.00 0.00 0.00 92 1009.3
20260505101803 20 182 1.6 6.4 0.00 0.00 0.00 92 1009.3
20260505101111 20 186 1.6 6.4 0.00 0.00 0.00 92 1009.3
20260505100004 19 166 1.6 4.8 0.00 0.00 0.00 92 1009.3
20260505095610 19 170 1.6 4.8 0.00 0.00 0.00 92 1009.3
20260505094710 19 166 0.0 4.8 0.00 0.00 0.00 92 1009.3
20260505093603 20 159 1.6 8.0 0.00 0.00 0.00 91 1009.4
20260505092703 20 163 1.6 8.0 0.00 0.00 0.00 91 1009.5
20260505092011 19 167 1.6 4.8 0.00 0.00 0.00 91 1009.8
20260505090903 20 174 1.6 3.2 0.00 0.00 0.00 90 1009.8
20260505090004 20 176 1.6 4.8 0.00 0.00 0.00 90 1009.8
20260505085404 20 180 1.6 4.8 0.00 0.00 0.00 89 1009.6